Regional Weather Roundup
Issued by NWS Midland/Odessa, TX

Home | Current Version | Previous Version | Text Only | Print | Product List | Glossary On
Versions: 1 2 3 4 5 6 7 8 9 10 11 12 13 14 15 16 17 18 19 20 21 22 23 24 25 26 27 28 29 30 31 32 33 34 35 36 37 38 39 40 41 42 43 44 45 46 47 48 49 50
000
ASUS44 KMAF 240010
RWRMAF
MIDLAND AREA WEATHER ROUNDUP
NATIONAL WEATHER SERVICE MIDLAND TX
700 PM CDT SAT MAY 23 2015

...IN SOUTHWEST TEXAS AND SOUTHEAST NEW MEXICO...

CITY           SKY/WX    TMP DP  RH WIND       PRES   REMARKS
ALPINE         CLOUDY    62  54  75 CALM      29.97F
ANDREWS        RAIN      61  58  90 S13G18    29.95R
ARTESIA        PTSUNNY   81  16   9 SW28      29.82R
BIG SPRING     CLOUDY    66  58  76 NW3       29.89F
CARLSBAD       PTSUNNY   82  26  13 W14       29.79R
DRYDEN           N/A     80  57  45 W15G24    29.88R
FORT STOCKTON  LGT RAIN  64  58  80 S9        29.88F
GUAD PASS        N/A    N/A N/A N/A MISG        N/A
HOBBS          PTSUNNY   66  55  68 SE14G20   29.87R
MARFA          CLOUDY    64  54  68 S9        29.98F
MIDLAND AIRPK  TSTM      64  59  83 SW14G24   29.96R
MIDLAND INTL   TSTM      63  58  83 SW16      29.95R
ODESSA           N/A    N/A N/A N/A MISG      29.96S THUNDER
PECOS          CLOUDY    64  58  81 E8        29.82F
PRESIDIO       FAIR      78  51  39 SE15G31   29.81S
SEMINOLE       CLOUDY    65  55  70 SE14      29.90R
SNYDER         CLOUDY    61  59  93 W17G25    29.89R
WINK           CLOUDY    65  57  75 SE14G24   29.84F
$$
...OTHER STATIONS IN TEXAS...

CITY           SKY/WX    TMP DP  RH WIND       PRES   REMARKS
ABILENE        LGT RAIN  75  68  78 S18G28    29.88R
AMARILLO       PTSUNNY   60  59  96 E17       29.89R
AUSTIN         TSTM      73  73 100 E6        29.91F
BROWNSVILLE    MOSUNNY   84  73  69 SE21G30   29.86F
CORPUS CHRISTI PTSUNNY   82  73  74 SE22G29   29.88S
DALLAS FTW     TSTM      68  67  96 S15       29.96R FOG
DEL RIO        CLOUDY    68  65  90 SE9       29.86R
EL PASO        MOSUNNY   81  13   7 W21G35    29.83F
HOUSTON INT    PTSUNNY   80  74  81 SE10      29.95F
LUBBOCK        TSTM      64  52  64 S16       29.94R
SAN ANGELO     CLOUDY    73  64  73 SE16      29.88R
SAN ANTONIO    CLOUDY    76  72  87 SE9       29.92R THUNDER
WACO           LGT RAIN  73  70  90 S7        29.96R
WICHITA FALLS  NOT AVBL
$$
...OTHER LOCATIONS IN NEW MEXICO...

CITY           SKY/WX    TMP DP  RH WIND       PRES   REMARKS
ALAMAGORDO     SUNNY     77  14   9 SW13G22   29.87S
ALBUQUERQUE    PTSUNNY   70  20  15 S16       29.90S
CANNON AFB     PTSUNNY   76  34  21 SW16G25   29.85R
CLOVIS         CLOUDY    75  34  22 SW20        N/A
HOLLOMAN AFB   SUNNY     78  15   9 W10       29.85F
ROSWELL        PTSUNNY   80  20  10 SW13      29.79R
RUIDOSO        SUNNY     63  14  15 SW18G28   30.00R
SANTA FE       MOSUNNY   65  21  18 W13       29.92F
TRUTH OR CONSE SUNNY     76  13   9 SW15G25   29.86S
TUCUMCARI      SUNNY     78  33  19 SW13      29.82R
$$



USA.gov is the U.S. government's official web portal to all federal, state and local government web resources and services.